CZ-6A DEB, 55206

Orbit data source: Space-Track

CZ-6A DEB, 55206 is space debris in SSO originally from a launch on Fri, 11 Nov 2022 UTC launched from the Taiyaun Space Center, China (TSC). Debris objects in space refer to the collection of defunct objects orbiting the Earth. Examples of debris include non-operational satellites, rocket bodies, and fragments generated from explosions, collisions, or faulty payload assembly.

Loading next visibility...
Identifier
55206, 2022-151VX
Orbit
SSO
Country
Flag of CNCN / PRC
Related business
Manufacturer
SAST
Mission
Spacecraft
Bus & Motor
Unknown
Mass
Unknown
Launch date (UTC)
2022-11-11 (3 years ago)
Launch vehicle
Unknown
Launch site
Taiyaun Space Center, China (TSC)
Object type
Payload
Rocket body
Debris
Shape & HBR
Unknown shape, 0.1 m
Radar Cross Section
Small (<0.1 m²)

Expand to show TLE details & history
Last TLE update: 8 hours ago

TLE from 8 hours ago
0 CZ-6A DEB
1 55206U 22151VX  25352.17567425  .00045768  00000-0  36856-2 0  9993
2 55206  98.6550  60.6074 0038052  80.4862 280.0655 14.99200421158295
Epoch: 2025-12-18T04:12Z
TLE epoch observation values (Epoch: 2025-12-18T04:12:58.255Z)
Latitude
-0.00005°
Longitude
-89.67027°
Altitude
567.866 km
Speed
7.58 km/s
True Right ascension
04h 02m 25s
True Declination
0° 00' 00"
Sunlit
Object was in full shadow at epoch
Visualization orbit readout
Latitude
Unknown
Longitude
Unknown
Altitude
Unknown
Speed
Unknown
Apparent Right ascension
Unknown
Apparent Declination
Unknown
Sunlit
N/A
Visualization observer readout
Local Sidereal Time
11:25:56
Azimuth
Unknown
Elevation
Unknown
Doppler factor
Unknown
Orbital elements
Apogee altitude
592.842 km
Perigee altitude
539.991 km
Semi-major axis
6,944.553 km
Eccentricity
0.00381
Inclination
98.655°
RAAN
60.6074°
Arg. of periapsis
80.4862°
True anomaly
279.63581°
Mean anomaly
280.0655°
Eccentric anomaly
279.85069°
Mean motion
3.75039 °/min
Orbital period
95.99 mins
BSTAR
0.0036856
Loading maneuver chart data...
Computing Atmospheric mass density...
Loading historical data...
Loading historical data...
Loading historical data...
Loading historical data...
Loading historical data...
Loading historical data...
Loading historical data...

Documentation

Showing up to 5 results
|